Weather History for Zephyrhills, FL

Change the Weather History Date:

Friday, October 26, 2012

  Actual Average (KPCM) Record (KPCM)
Temperature  
Mean Temperature 78 °F -  
Max Temperature 86 °F 83 °F 93 °F (2010)
Min Temperature 69 °F 59 °F 43 °F (1968)
Cooling Degree Days 12    
Growing Degree Days 28 (Base 50)    
Moisture  
Dew Point 62 °F    
Average Humidity 68    
Maximum Humidity 94    
Minimum Humidity 33    
Precipitation  
Precipitation 0.00 in - - ()
Sea Level Pressure  
Sea Level Pressure 29.73 in    
Wind  
Wind Speed 11 mph ()    
Max Wind Speed 24 mph    
Max Gust Speed 34 mph    
Visibility 10.0 miles    
Events      
Averages and records for this station are not official NWS values.
T = Trace of Precipitation, MM = Missing Value Source: Averaged Metar Reports

Daily Weather History Graph

Daily Weather History Graph

Search for Another Location

Airport:

Trip Planner

Search our weather history database for the weather conditions in past years. The results will help you decide how hot, cold, wet, or windy it might be!

Date:

Astronomy

Oct. 26, 2012 Rise Set
Actual Time 7:36 AM EDT 6:48 PM EDT
Civil Twilight 7:12 AM EDT 7:12 PM EDT
Nautical Twilight 6:44 AM EDT 7:39 PM EDT
Astronomical Twilight 6:17 AM EDT 8:07 PM EDT
Moon 4:53 PM EDT (10/26) 4:44 AM EDT (10/26)
Length of Visible Light 12h 00m
Length of Day
11h 11m
Waxing Gibbous, 91% of the Moon is Illuminated
Oct 26
Waxing Gibbous
Oct 29
Full
Nov 6
Last Quarter
Nov 13
New
Nov 20
First Quarter

Hourly Weather History & Observations

Time (EDT) Temp. Heat Index Dew Point Humidity Pressure Visibility Wind Dir Wind Speed Gust Speed Precip Events Conditions
12:15 AM 71.6 °F - 68.0 °F 88% 29.84 in 10.0 mi North 6.9 mph - N/A   Clear
12:35 AM 71.6 °F - 68.0 °F 88% 29.84 in 10.0 mi North 8.1 mph - N/A   Clear
1:15 AM 69.8 °F - 68.0 °F 94% 29.82 in 10.0 mi North 8.1 mph - N/A   Clear
1:35 AM 69.8 °F - 68.0 °F 94% 29.81 in 10.0 mi North 6.9 mph - N/A   Clear
2:15 AM 69.8 °F - 68.0 °F 94% 29.80 in 7.0 mi North 6.9 mph - N/A   Clear
2:35 AM 69.8 °F - 68.0 °F 94% 29.79 in 10.0 mi North 8.1 mph - N/A   Clear
2:55 AM 69.8 °F - 68.0 °F 94% 29.79 in 10.0 mi North 6.9 mph - N/A   Clear
3:35 AM 69.8 °F - 68.0 °F 94% 29.78 in 10.0 mi North 6.9 mph - N/A   Clear
3:55 AM 69.8 °F - 68.0 °F 94% 29.76 in 10.0 mi North 6.9 mph - N/A   Clear
4:15 AM 69.8 °F - 68.0 °F 94% 29.76 in 10.0 mi NNE 9.2 mph - N/A   Clear
4:55 AM 69.8 °F - 68.0 °F 94% 29.75 in 10.0 mi North 8.1 mph - N/A   Clear
5:15 AM 69.8 °F - 68.0 °F 94% 29.75 in 10.0 mi North 9.2 mph - N/A   Clear
5:35 AM 69.8 °F - 66.2 °F 88% 29.75 in 10.0 mi North 5.8 mph - N/A   Clear
5:55 AM 69.8 °F - 66.2 °F 88% 29.76 in 10.0 mi North 6.9 mph - N/A   Clear
6:15 AM 69.8 °F - 66.2 °F 88% 29.76 in 10.0 mi North 5.8 mph - N/A   Clear
6:35 AM 69.8 °F - 66.2 °F 88% 29.77 in 10.0 mi North 8.1 mph - N/A   Clear
6:55 AM 69.8 °F - 66.2 °F 88% 29.77 in 10.0 mi NNW 8.1 mph - N/A   Clear
7:15 AM 69.8 °F - 66.2 °F 88% 29.76 in 10.0 mi North 9.2 mph - N/A   Clear
7:35 AM 69.8 °F - 66.2 °F 88% 29.76 in 10.0 mi North 9.2 mph - N/A   Clear
7:55 AM 69.8 °F - 64.4 °F 83% 29.77 in 10.0 mi North 10.4 mph - N/A   Clear
8:15 AM 69.8 °F - 64.4 °F 83% 29.77 in 10.0 mi North 9.2 mph - N/A   Clear
8:35 AM 69.8 °F - 66.2 °F 88% 29.77 in 10.0 mi North 12.7 mph - N/A   Clear
8:55 AM 69.8 °F - 66.2 °F 88% 29.78 in 10.0 mi North 12.7 mph 18.4 mph N/A   Clear
9:55 AM 73.4 °F - 66.2 °F 78% 29.78 in 10.0 mi North 10.4 mph - N/A   Clear
10:15 AM 75.2 °F - 66.2 °F 73% 29.78 in 10.0 mi North 11.5 mph 20.7 mph N/A   Clear
10:35 AM 75.2 °F - 66.2 °F 73% 29.78 in 10.0 mi North 12.7 mph 18.4 mph N/A   Scattered Clouds
10:55 AM 77.0 °F - 64.4 °F 65% 29.77 in 10.0 mi North 15.0 mph 24.2 mph N/A   Scattered Clouds
11:15 AM 78.8 °F - 62.6 °F 57% 29.76 in 10.0 mi NNE 20.7 mph 24.2 mph N/A   Scattered Clouds
11:35 AM 78.8 °F - 62.6 °F 57% 29.76 in 10.0 mi NNE 16.1 mph 26.5 mph N/A   Scattered Clouds
11:55 AM 78.8 °F - 62.6 °F 57% 29.76 in 10.0 mi North 19.6 mph 25.3 mph N/A   Mostly Cloudy
12:15 PM 80.6 °F 81.8 °F 62.6 °F 54% 29.76 in 10.0 mi North 11.5 mph 28.8 mph N/A   Mostly Cloudy
12:35 PM 82.4 °F 82.9 °F 60.8 °F 48% 29.74 in 10.0 mi North 19.6 mph 23.0 mph N/A   Scattered Clouds
12:55 PM 82.4 °F 82.9 °F 60.8 °F 48% 29.73 in 10.0 mi North 23.0 mph 31.1 mph N/A   Scattered Clouds
1:15 PM 82.4 °F 82.5 °F 59.0 °F 45% 29.73 in 10.0 mi North 20.7 mph 32.2 mph N/A   Scattered Clouds
1:35 PM 86.0 °F 84.9 °F 57.2 °F 37% 29.72 in 10.0 mi NE 19.6 mph 31.1 mph N/A   Scattered Clouds
1:55 PM 82.4 °F 82.0 °F 57.2 °F 42% 29.71 in 10.0 mi North 18.4 mph 28.8 mph N/A   Scattered Clouds
2:15 PM 86.0 °F 84.5 °F 55.4 °F 35% 29.69 in 10.0 mi NNE 24.2 mph 33.4 mph N/A   Clear
2:35 PM 86.0 °F 84.9 °F 57.2 °F 37% 29.69 in 10.0 mi North 19.6 mph 28.8 mph N/A   Scattered Clouds
2:55 PM 86.0 °F 84.2 °F 53.6 °F 33% 29.68 in 10.0 mi NNE 21.9 mph 34.5 mph N/A   Scattered Clouds
3:15 PM 84.2 °F 82.8 °F 53.6 °F 35% 29.68 in 10.0 mi NNE 20.7 mph 33.4 mph N/A   Clear
3:35 PM 82.4 °F 81.7 °F 55.4 °F 39% 29.67 in 10.0 mi North 20.7 mph 28.8 mph N/A   Scattered Clouds
3:55 PM 84.2 °F 83.5 °F 57.2 °F 40% 29.66 in 10.0 mi North 20.7 mph 28.8 mph N/A   Scattered Clouds
4:15 PM 82.4 °F 82.5 °F 59.0 °F 45% 29.66 in 10.0 mi North 18.4 mph 31.1 mph N/A   Scattered Clouds
4:35 PM 82.4 °F 82.5 °F 59.0 °F 45% 29.66 in 10.0 mi North 19.6 mph 28.8 mph N/A   Scattered Clouds
4:55 PM 82.4 °F 82.5 °F 59.0 °F 45% 29.67 in 10.0 mi North 18.4 mph 27.6 mph N/A   Scattered Clouds
5:15 PM 80.6 °F 81.1 °F 59.0 °F 48% 29.67 in 10.0 mi North 17.3 mph 27.6 mph N/A   Scattered Clouds
5:35 PM 80.6 °F 81.5 °F 60.8 °F 51% 29.66 in 10.0 mi North 18.4 mph 26.5 mph N/A   Scattered Clouds
5:55 PM 78.8 °F - 60.8 °F 54% 29.67 in 10.0 mi North 16.1 mph 26.5 mph N/A   Scattered Clouds
6:15 PM 78.8 °F - 60.8 °F 54% 29.68 in 10.0 mi North 11.5 mph - N/A   Scattered Clouds
6:35 PM 77.0 °F - 59.0 °F 54% 29.67 in 10.0 mi North 21.9 mph 27.6 mph N/A   Mostly Cloudy
6:55 PM 77.0 °F - 59.0 °F 54% 29.68 in 10.0 mi North 17.3 mph 27.6 mph N/A   Scattered Clouds
7:15 PM 75.2 °F - 59.0 °F 57% 29.69 in 10.0 mi North 13.8 mph 25.3 mph N/A   Clear
7:35 PM 73.4 °F - 60.8 °F 65% 29.70 in 10.0 mi North 16.1 mph 24.2 mph N/A   Scattered Clouds
7:55 PM 73.4 °F - 60.8 °F 65% 29.70 in 10.0 mi North 8.1 mph - N/A   Scattered Clouds
8:15 PM 73.4 °F - 60.8 °F 65% 29.70 in 10.0 mi North 12.7 mph 17.3 mph N/A   Mostly Cloudy
8:35 PM 73.4 °F - 60.8 °F 65% 29.70 in 10.0 mi NNW 12.7 mph - N/A   Mostly Cloudy
8:55 PM 73.4 °F - 60.8 °F 65% 29.70 in 10.0 mi North 15.0 mph 21.9 mph N/A   Scattered Clouds
9:15 PM 73.4 °F - 60.8 °F 65% 29.70 in 10.0 mi North 12.7 mph 21.9 mph N/A   Scattered Clouds
9:35 PM 71.6 °F - 60.8 °F 69% 29.70 in 10.0 mi NNW 17.3 mph 25.3 mph N/A   Scattered Clouds
9:55 PM 71.6 °F - 60.8 °F 69% 29.71 in 10.0 mi North 11.5 mph - N/A   Scattered Clouds
10:15 PM 71.6 °F - 60.8 °F 69% 29.71 in 10.0 mi North 16.1 mph 19.6 mph N/A   Mostly Cloudy
10:35 PM 71.6 °F - 60.8 °F 69% 29.71 in 10.0 mi NNW 11.5 mph 17.3 mph N/A   Scattered Clouds
10:55 PM 71.6 °F - 60.8 °F 69% 29.70 in 10.0 mi North 15.0 mph 21.9 mph N/A   Clear
11:15 PM 71.6 °F - 59.0 °F 64% 29.70 in 10.0 mi NNW 11.5 mph 19.6 mph N/A   Clear
11:35 PM 71.6 °F - 59.0 °F 64% 29.70 in 10.0 mi NNW 12.7 mph - N/A   Clear
11:55 PM 69.8 °F - 59.0 °F 68% 29.69 in 10.0 mi NNW 11.5 mph 16.1 mph N/A   Clear